This is the latest recevied weather packets stored in our database for station/object DB8NZ-22. If no packets are shown the sender has not sent any weather packets the latest 10 day(s).
| Time | Temp. | Humidity | Pressure | Rain* | Wind** | Luminosity | Snow |
|---|---|---|---|---|---|---|---|
| 1777733730 | 32.22° C | 17% | 1018.4 hPa | - | - | - | - |
| 1777732830 | 32.22° C | 18% | 1018.6 hPa | - | - | - | - |
| 1777731930 | 32.22° C | 17% | 1018.8 hPa | - | - | - | - |
| 1777731030 | 32.22° C | 17% | 1018.9 hPa | - | - | - | - |
| 1777730130 | 32.78° C | 18% | 1019.1 hPa | - | - | - | - |
| 1777729230 | 32.22° C | 19% | 1019.3 hPa | - | - | - | - |
| 1777728330 | 32.22° C | 18% | 1019.5 hPa | - | - | - | - |
| 1777727430 | 31.67° C | 19% | 1019.7 hPa | - | - | - | - |
| 1777726530 | 30.56° C | 20% | 1019.9 hPa | - | - | - | - |
| 1777725630 | 30.56° C | 20% | 1020.2 hPa | - | - | - | - |
| 1777724730 | 30° C | 22% | 1020.2 hPa | - | - | - | - |
| 1777723830 | 29.44° C | 23% | 1020.5 hPa | - | - | - | - |
| 1777722929 | 28.33° C | 23% | 1020.8 hPa | - | - | - | - |
| 1777722029 | 28.33° C | 23% | 1021 hPa | - | - | - | - |
| 1777721129 | 28.33° C | 25% | 1021.2 hPa | - | - | - | - |
| 1777720229 | 27.78° C | 26% | 1021.5 hPa | - | - | - | - |
| 1777719329 | 26.67° C | 27% | 1021.6 hPa | - | - | - | - |
| 1777718429 | 26.11° C | 28% | 1021.8 hPa | - | - | - | - |
| 1777717529 | 25° C | 29% | 1022 hPa | - | - | - | - |
| 1777716629 | 25° C | 31% | 1022.2 hPa | - | - | - | - |
| 1777715729 | 23.89° C | 30% | 1022.4 hPa | - | - | - | - |
| 1777714829 | 23.33° C | 31% | 1022.6 hPa | - | - | - | - |
| 1777713929 | 22.78° C | 34% | 1022.7 hPa | - | - | - | - |
| 1777713029 | 21.67° C | 35% | 1022.8 hPa | - | - | - | - |
| 1777712128 | 20.56° C | 35% | 1023.1 hPa | - | - | - | - |
* Rain since midnight (hover to see other rain measurements)
** Current wind speed in m/s (hover to see current wind gust speed)